Westerly, RI

11:47 PM EST on February 08, 2016 (GMT -0500)
Westerly State

Weather History for KWST - March, 2014

Change the Weather History Date:

Friday, March 28, 2014

  Actual Average (KGON) Record (KGON)
Temperature  
Mean Temperature 40 °F -  
Max Temperature 52 °F 53 °F 75 °F (1991)
Min Temperature 30 °F 31 °F 16 °F (1966)
Degree Days  
Heating Degree Days 24    
Moisture  
Dew Point 38 °F    
Average Humidity 80    
Maximum Humidity 93    
Minimum Humidity 65    
Precipitation  
Precipitation 0.07 in - - ()
Sea Level Pressure  
Sea Level Pressure 30.13 in    
Wind  
Wind Speed 8 mph (SW)    
Max Wind Speed 17 mph    
Max Gust Speed 28 mph    
Visibility 8 miles    
Events Rain    
Averages and records for this station are not official NWS values.
T = Trace of Precipitation, MM = Missing Value Source: NWS Daily Summary

Daily Weather History Graph

Daily Weather History Graph

Search for Another Location

Airport or City:

Trip Planner

Search our weather history database for the weather conditions in past years. The results will help you decide how hot, cold, wet, or windy it might be!

Date:

Astronomy

Mar. 28, 2014 Rise Set
Actual Time 6:37 AM EDT 7:08 PM EDT
Civil Twilight 6:09 AM EDT 7:35 PM EDT
Nautical Twilight 5:36 AM EDT 8:08 PM EDT
Astronomical Twilight 5:03 AM EDT 8:42 PM EDT
Moon 5:07 AM EDT (3/28) 5:00 PM EDT (3/28)
Length of Visible Light 13h 26m
Length of Day
12h 30m
Waning Crescent, 6% of the Moon is Illuminated
Mar 28
Waning Crescent
Mar 30
New
Apr 7
First Quarter
Apr 15
Full
Apr 22
Last Quarter

Hourly Weather History & Observations

Time (EDT) Temp. Windchill Dew Point Humidity Pressure Visibility Wind Dir Wind Speed Gust Speed Precip Events Conditions
12:53 AM 37.9 °F 30.5 °F 27.0 °F 65% 30.29 in 10.0 mi SW 11.5 mph 19.6 mph N/A   Partly Cloudy
1:53 AM 37.9 °F 32.7 °F 27.0 °F 65% 30.28 in 10.0 mi SW 6.9 mph - N/A   Mostly Cloudy
2:53 AM 37.0 °F 32.4 °F 28.9 °F 73% 30.26 in 10.0 mi SSW 5.8 mph - N/A   Clear
3:53 AM 36.0 °F 32.1 °F 30.0 °F 79% 30.23 in 10.0 mi SSW 4.6 mph - N/A   Clear
4:53 AM 35.1 °F - 30.9 °F 85% 30.22 in 10.0 mi Calm Calm - N/A   Clear
5:53 AM 30.9 °F - 28.0 °F 89% 30.19 in 9.0 mi Calm Calm - N/A   Clear
6:53 AM 37.0 °F - 33.1 °F 86% 30.19 in 10.0 mi Calm Calm - N/A   Clear
7:53 AM 43.0 °F 37.2 °F 36.0 °F 76% 30.19 in 10.0 mi SSW 10.4 mph 18.4 mph N/A   Clear
8:53 AM 46.0 °F 41.0 °F 37.9 °F 73% 30.17 in 10.0 mi SW 10.4 mph 19.6 mph N/A   Scattered Clouds
9:53 AM 48.0 °F - 39.9 °F 74% 30.15 in 10.0 mi SSW 15.0 mph 24.2 mph N/A   Partly Cloudy
10:53 AM 48.9 °F - 41.0 °F 74% 30.14 in 10.0 mi SW 13.8 mph - N/A   Clear
11:53 AM 48.9 °F - 41.0 °F 74% 30.13 in 9.0 mi SW 12.7 mph 20.7 mph N/A   Clear
12:53 PM 51.1 °F - 42.1 °F 71% 30.10 in 9.0 mi SW 15.0 mph 21.9 mph N/A   Mostly Cloudy
1:53 PM 48.9 °F - 41.0 °F 74% 30.08 in 9.0 mi SW 9.2 mph - N/A   Overcast
2:53 PM 46.9 °F - 43.0 °F 86% 30.05 in 8.0 mi Variable 4.6 mph - 0.00 in   Overcast
3:53 PM 48.0 °F - 42.1 °F 80% 30.01 in 8.0 mi SSW 17.3 mph 27.6 mph N/A   Overcast
4:53 PM 48.0 °F - 44.1 °F 86% 30.02 in 6.0 mi SSW 13.8 mph 20.7 mph 0.01 in Rain Light Rain
5:53 PM 46.9 °F - 43.0 °F 86% 30.05 in 4.0 mi WSW 8.1 mph 17.3 mph 0.02 in Rain Light Rain
6:42 PM 46.0 °F 43.1 °F 44.1 °F 93% 30.06 in 2.0 mi SW 5.8 mph - 0.04 in Rain Light Rain
6:53 PM 46.0 °F 43.1 °F 44.1 °F 93% 30.06 in 4.0 mi WSW 5.8 mph - 0.04 in Rain Light Rain
7:53 PM 46.9 °F - 42.1 °F 83% 30.05 in 9.0 mi SW 11.5 mph 18.4 mph 0.00 in   Overcast
8:53 PM 46.0 °F 43.1 °F 42.1 °F 86% 30.06 in 8.0 mi WSW 5.8 mph - N/A   Mostly Cloudy
9:53 PM 48.0 °F - 44.1 °F 86% 30.06 in 9.0 mi SW 9.2 mph - N/A   Mostly Cloudy
10:53 PM 46.9 °F - 43.0 °F 86% 30.06 in 8.0 mi WSW 5.8 mph - N/A   Overcast
11:53 PM 46.0 °F 41.9 °F 43.0 °F 89% 30.07 in 8.0 mi SW 8.1 mph - N/A   Mostly Cloudy